Вернуться в каталог

BREEZE-M R/B

АктивенHEO
NORAD 37799·ROCKET BODY·🇷🇺 Russia

Запущен Aug 17, 2011 с Baikonur Cosmodrome

Loading…

Ближайшие Пролёты (ближайшие 24 часа)

TLE

СвежийSource: Space-Track

Эпоха: Sep 13, 2026, 20:33 UTC

1 37799U 11045B   26256.85639618 -.00000054  00000-0  00000+0 0  9992
2 37799  51.2790  73.3235 5576262  38.4518 350.4735  3.90437062214981

Отслеживайте BREEZE-M R/B в реальном времени с AllMySat

Download on the App Store